Flag Weather past 2 weeks in Ljubljana, Slovenia

Now
38 °F

Drizzle. Low clouds.


Feels Like: 38 °F
Forecast: 39 / 47 °F
Wind: No wind

Location: Ljubljana / Bezigrad

Current Time: Nov 27, 2014 at 11:19:20 PM

Latest Report: Nov 27, 2014 at 10:00 PM


Visibility: 1 mi

Pressure: 30.06 "Hg

Humidity: 93%

Dew point: 36 °F

Location of LjubljanaLocation

Historic Weather in Ljubljana — Graph

°F

Ljubljana temperature yesterday

Maximum temperature yesterday: 41 °F (at 11:00 AM)
Minimum temperature yesterday: 35 °F (at 6:00 AM)
Average temperature yesterday: 39 °F

Past Weeks' High & Low Weather Summary

 TemperatureHumidityPressure
High63 °F (Nov 16, 1:00 PM)100% (Nov 22, 6:00 AM)30.44 "Hg (Nov 22, 6:00 AM)
Low35 °F (Nov 26, 6:00 AM)54% (Nov 16, 1:00 PM)29.64 "Hg (Nov 18, 4:00 AM)
Average44 °F90%30.09 "Hg
* Reported Nov 12 10:00 PM — Nov 27 10:00 PM, Ljubljana, Weather by CustomWeather, © 2014

Note: Actual official high and low records may vary slightly from our data, if they occured in-between our weather recording intervals... More about our weather records

Advertising

Ljubljana weather history for previous 24 hours

 ConditionsComfort  
Time TempWeatherWind HumidityBarometerVisibility
10:00 PM
Nov 27
38 °FDrizzle. Low clouds.No wind93%30.06 "Hg1 mi
9:00 PM38 °FDrizzle. Low clouds.1 mph91%30.06 "Hg1 mi
8:00 PM38 °FDrizzle. Low clouds.1 mph91%30.06 "Hg1 mi
7:00 PM38 °FDrizzle. Low clouds.No wind89%30.05 "Hg1 mi
6:00 PM38 °FDrizzle. Low clouds.1 mph88%30.05 "Hg2 mi
5:00 PM38 °FLow clouds.1 mph88%30.05 "Hg2 mi
4:00 PM38 °FLow clouds.1 mph88%30.05 "Hg2 mi
3:00 PM38 °FDrizzle. Low clouds.1 mph91%30.05 "Hg1 mi
2:00 PM38 °FLow clouds.1 mph91%30.06 "Hg2 mi
1:00 PM38 °FLight rain. Low clouds.1 mph91%30.08 "Hg2 mi
12:00 PM38 °FLight rain. Low clouds.1 mph88%30.09 "Hg1 mi
11:00 AM38 °FFog.1 mph87%30.11 "Hg2 mi
10:00 AM38 °FFog.1 mph86%30.12 "Hg2 mi
9:00 AM38 °FFog.1 mph85%30.11 "Hg3 mi
8:00 AM37 °FFog.1 mph86%30.11 "Hg2 mi
7:00 AM37 °FOvercast.1 mph85%30.11 "Hg2 mi
6:00 AM37 °FDrizzle. Overcast.1 mph85%30.11 "Hg2 mi
5:00 AM37 °FChilly.No wind83%30.11 "HgN/A
4:00 AM37 °FChilly.1 mph82%30.13 "HgN/A
3:00 AM38 °FChilly.1 mph81%30.14 "HgN/A
2:00 AM38 °FChilly.No wind81%30.15 "HgN/A
1:00 AM38 °FChilly.1 mph80%30.16 "HgN/A
12:00 AM38 °FChilly.No wind78%30.18 "HgN/A
11:00 PM
Nov 26
38 °FChilly.1 mph75%30.19 "HgN/A
Weather by CustomWeather, © 2014

See weather overviewHow to use our weather pages